DECAYED
Showing default

SOYUZ MS-27, 63520 (Decayed)

Orbit data source: Space-Track

SOYUZ MS-27, 63520 was a payload satellite owned by RKKE (CIS) in LEO that was launched on Tue, 08 Apr 2025 UTC via a SOYUZ-2-1A launch vehicle from the Tyuratam Missile And Space Complex (TTMTR). Payload-class satellites include a variety of spacecraft equipped with specific instruments for various scientific and technological missions. These include communications satellites like Starlink; space stations such as the ISS; scientific satellites like the Hubble; Earth observation satellites from companies like Planet Labs, Umbra, and HawkEye 360; GPS; miniature CubeSats for education and research; and military/defense satellites.

Loading next visibility...
Identifier
63520, 2025-072A
Orbit
Decayed
Country
Flag of CISCIS
Related business
Manufacturer
RKKE
Mission
Decayed Civil Spaceship
Bus & Motor
7K-S A48, SA
Mass
7,152 kg wet, 2,900 kg dry
Launch date (UTC)
2025-04-08 (1 year ago)
Launch vehicle
SOYUZ-2-1A
Launch site
Tyuratam Missile And Space Complex (TTMTR)
Object type
Payload
Rocket body
Debris
Shape & HBR
Cyl + Cone + Sphere + 2 Pan, 14.5 m
Radar Cross Section
25.344 m², Large (>1 m²)

Expand to show TLE details & history
Last TLE update: 6 months ago

TLE from 6 months ago
0 SOYUZ MS-27
1 63520U 25072A   25345.50919951  .00014464  00000-0  26545-3 0  9994
2 63520  51.6308 148.5724 0003317 235.7177 124.3498 15.49508857 20205
Epoch: 2025-12-11T12:13Z
TLE epoch observation values (Epoch: 2025-12-11T12:13:14.837Z)
Latitude
-0.00001°
Longitude
-115.20359°
Altitude
420.175 km
Speed
7.66 km/s
True Right ascension
09h 54m 17s
True Declination
0° 00' 00"
Sunlit
Object was in daylight at epoch
Visualization orbit readout
Latitude
Unknown
Longitude
Unknown
Altitude
Unknown
Speed
Unknown
Apparent Right ascension
Unknown
Apparent Declination
Unknown
Sunlit
N/A
Visualization observer readout
Local Sidereal Time
07:22:50
Azimuth
Unknown
Elevation
Unknown
Doppler factor
Unknown
Orbital elements
Apogee altitude
420.926 km
Perigee altitude
416.417 km
Semi-major axis
6,796.808 km
Eccentricity
0.00033
Inclination
51.6308°
RAAN
148.5724°
Arg. of periapsis
235.7177°
True anomaly
124.38117°
Mean anomaly
124.3498°
Eccentric anomaly
124.36549°
Mean motion
3.87334 °/min
Orbital period
92.94 mins
BSTAR
0.00026545
Loading maneuver chart data...
Computing Atmospheric mass density...
Loading historical data...
Loading historical data...
Loading historical data...
Loading historical data...
Loading historical data...
Loading historical data...
Loading historical data...
Other satellites on launch #72 in the year 2025 (2025-04-08 UTC)

Documentation

Showing up to 5 results
|